FLOCK 2K-18 (42887 NORAD) Tracking and Keplerian Element Data

This shows tracking and keplerian element data for the satellite.

Feedback or suggestion? Click here.




ElementValue
Catalog42887
NameFLOCK 2K-18
Epoch Orbit23607
Epoch Day269.80545244
Epoch Year2021
RAAN117.8029
Inclination96.8409
Eccentricity0.0010798
Argument of Perigee54.2356
Mean Anonmoly305.9898
Mean Motion15.47763686
Decay Rate0.00015591
L11 42887U 17042BQ 21269.80545244 .00015591 00000-0 30157-3 0 9995
L22 42887 96.8409 117.8029 0010798 54.2356 305.9898 15.47763686236078

Live tracking and technical data element details for FLOCK 2K-18 (NORAD 42887). FLOCK 2K-18 can be tracked NOW for your location showing map with azimuth and elevation plus other details from your city location.

Track the satellite on the map from your city or location and see movement details for azimuth, elevation, latitude, longitude, range, height, and movement on the map or in text.







IsCatalogInMostPopularTable: catalog: 42887, numindb: 525
Update: records affected: 1



GetName: 42887 FLOCK 2K-18

Hit Count: updated at: Tue, 28 Sep 2021 17:03:04 GMT